Location: Bennemühlen
(52.5740°N, 9.7135°E)
Time: 17:31:00
(UTC+00:00)

Tiros 1 despin weight - Pass Details

Date: 17 February 2026
Orbit: 556 x 593 km, 48.2° (Epoch: 11 March)

Event Time Altitude Azimuth Distance (km) Brightness Sun altitude
Rises 17:05:35 0° 256° (WSW) 2,733 ? -4.9°
Reaches altitude 10° 17:07:53 10° 251° (WSW) 1,837 ? -5.3°
Maximum altitude 17:11:54 46° 178° (S) 750 ? -5.9°
Drops below altitude 10° 17:15:55 10° 105° (ESE) 1,840 ? -6.5°
Enters shadow 17:16:43 - 102° (ESE) 2,147 ? -6.6°
Sets 17:18:14 0° 99° (E) 2,739 - -6.8°
